Regional Weather Roundup
Issued by NWS

Home | Current Version | Previous Version | Text Only | Print | Product List | Glossary On
Versions: 1 2 3 4 5 6 7 8 9 10 11 12 13 14 15 16 17 18 19 20 21 22 23 24 25 26 27 28 29 30 31 32 33 34 35 36 37 38 39 40 41 42 43 44 45 46 47 48 49 50
000
ASUS45 KABQ 251010
RWRNM
WEATHER ROUNDUP FOR NEW MEXICO
NATIONAL WEATHER SERVICE ALBUQUERQUE NM
400 AM MDT SAT OCT 25 2014

NOTE: "FAIR" MEANS FEW OR NO CLOUDS BELOW 12,000 FEET AGL WITH NO
       SIGNIFICANT WEATHER OR OBSTRUCTIONS TO VISION.

      THIS PRODUCT IS RELEASED AS TWO VERSIONS.  ONE VERSION NEAR
      THE TOP OF THE HOUR CONTAINING PRELIMINARY DATA FROM ALBUQUERQUE
      AND OTHER STATIONS.  A FINAL VERSION WITH ADDITIONAL DATA IS
      ISSUED ABOUT 10 MINUTES AFTER THE HOUR.

NMZ501-503-504-510>518-251100-
NORTHWEST PLATEAU/NORTHCENTRAL MOUNTAINS

CITY           SKY/WX    TMP DP  RH WIND       PRES   REMARKS
FARMINGTON     CLEAR     42  30  62 E8        30.29F
LOS ALAMOS     PTCLDY    52  19  27 CALM      30.38F
SANTA FE       CLEAR     48  22  35 N13       30.33S
TAOS           PTCLDY    34  21  60 N5        30.39S WCI  30
ANGEL FIRE     FAIR      22  19  87 CALM      30.47F

$$
NMZ402-403-502-505>509-251100-
WESTCENTRAL MOUNTAINS/SOUTHWEST MOUNTAINS

CITY           SKY/WX    TMP DP  RH WIND       PRES   REMARKS
GALLUP         PTCLDY    37  31  78 CALM      30.36S
GRANTS         PTCLDY    34  25  69 NW6       30.38S WCI  29
SILVER CITY    CLEAR     50  39  66 N10       30.30F

$$
NMZ407-409-411-412-251100-
SOUTHERN DESERTS

CITY           SKY/WX    TMP DP  RH WIND       PRES   REMARKS
LORDSBURG      FAIR      46  43  87 SE5       30.21F
DEMING         CLEAR     50  44  80 NW3       30.22F
LAS CRUCES     CLEAR     53  46  75 CALM      30.24S
HOLLOMAN AFB   PTCLDY    53  45  74 N5        30.20F
T OR C         CLEAR     56  43  61 W9        30.24F

$$
NMZ519>523-251100-
CENTRAL VALLEYS/CENTRAL HIGHLANDS

CITY           SKY/WX    TMP DP  RH WIND       PRES   REMARKS
ALBUQUERQUE    CLEAR     56  37  49 NE3       30.29S
DOUBLE EAGLE   CLEAR     43  28  55 CALM      30.31F
MORIARTY ARPT  FAIR      34  27  76 CALM      30.34S
CLINES CORNERS CLEAR     48  30  49 W14       30.33F
BELEN          NOT AVBL
SOCORRO        FAIR      49  42  77 NW5       30.26S

$$
NMZ524>526-539-540-251100-
SOUTHCENTRAL MOUNTAINS

CITY           SKY/WX    TMP DP  RH WIND       PRES   REMARKS
RUIDOSO        CLEAR     52  32  46 W9        30.37F

$$
NMZ527>531-251100-
NORTHEAST HIGHLANDS/NORTHEAST PLAINS

CITY           SKY/WX    TMP DP  RH WIND       PRES   REMARKS
LAS VEGAS      CLEAR     46  21  37 N10       30.31F
RATON          CLEAR     41  30  65 NE8       30.28F
CLAYTON        NOT AVBL

$$
NMZ532>537-251100-
EASTCENTRAL PLAINS

CITY           SKY/WX    TMP DP  RH WIND       PRES   REMARKS
TUCUMCARI      CLEAR     55  48  77 W8        30.15S
CANNON AFB     CLEAR     58  49  73 NW5       30.19F
CLOVIS AIRPORT CLEAR     55  46  71 W9        30.21F

$$
NMZ028-029-538-251100-
SOUTHEAST PLAINS

CITY           SKY/WX    TMP DP  RH WIND       PRES   REMARKS
ROSWELL        CLEAR     53  50  89 CALM      30.17S
CARLSBAD       CLEAR     55  52  89 NW6       30.15S
HOBBS          CLEAR     55  55 100 S6        30.19F


$$



USA.gov is the U.S. government's official web portal to all federal, state and local government web resources and services.